Theta_e
310 311 311 312 312 313 314 315 315 315 316 316 315 315 316 318 321 327 333 337 343 343 345 354 357 348 348 349 346 343 349 349 346 346 345 344 343 342 344 343 344 344 345 344 342
308 309 309 310 310 311 312 313 315 316 316 316 316 315 316 317 322 329 333 332 335 342 349 351 350 349 350 347 344 344 348 347 343 344 344 343 344 342 343 343 345 345 345 345 343
308 309 309 310 310 310 310 311 313 315 316 316 316 316 316 317 324 334 334 333 335 343 353 349 347 348 348 342 343 343 343 345 343 342 343 343 344 344 343 344 343 344 344 344 345
309 309 309 310 310 310 310 311 311 313 315 316 317 316 316 317 336 340 334 335 336 342 350 353 345 346 348 346 342 342 342 342 342 342 343 344 346 346 345 344 343 343 344 343 342
309 310 310 310 311 311 311 311 311 313 315 316 316 316 316 324 328 334 332 335 335 337 352 350 348 343 347 346 344 342 343 343 342 341 342 343 346 346 345 344 344 343 343 344 344
310 310 310 311 312 312 312 312 312 314 315 316 316 317 316 328 339 332 332 333 337 342 350 347 347 346 345 345 345 342 343 342 343 341 341 343 344 344 346 344 344 343 345 344 344
311 311 311 311 312 313 313 313 313 315 316 316 316 317 324 327 332 342 339 335 344 346 346 344 344 344 346 347 345 343 344 345 343 344 341 341 345 344 345 344 345 346 345 347 346
311 312 312 312 312 313 313 313 315 317 316 316 316 317 326 324 328 337 341 342 343 345 344 340 342 345 343 345 346 346 347 350 346 344 342 342 348 343 343 345 346 345 346 348 348
312 313 313 313 313 313 314 314 317 321 317 315 317 323 325 323 325 339 340 342 343 343 343 342 342 344 346 349 350 349 354 350 347 344 346 347 345 342 343 343 346 347 347 346 349
312 313 314 314 313 312 313 315 320 322 318 316 328 329 324 323 323 326 340 341 343 343 343 342 342 345 346 350 356 353 351 352 348 346 345 344 343 342 343 343 345 344 346 346 347
314 314 314 314 312 311 315 325 328 328 328 324 326 324 325 324 324 326 340 341 341 343 343 342 343 347 351 349 346 345 350 352 347 345 345 345 343 343 342 342 343 343 343 344 343
316 315 314 314 311 313 323 327 324 324 327 329 327 325 324 325 325 327 333 335 341 344 342 343 344 345 348 347 346 345 351 352 346 345 342 344 344 342 343 344 342 344 344 345 345
316 316 315 314 311 318 321 325 323 324 326 326 326 326 324 325 326 326 330 332 341 340 342 342 345 345 347 349 350 349 352 350 349 346 346 344 345 344 343 344 344 344 344 344 346
316 316 316 314 318 318 323 324 323 325 328 329 327 325 325 325 326 327 328 332 335 336 340 341 343 345 344 343 344 352 349 348 350 352 352 343 346 346 343 343 343 343 342 344 346
315 315 316 314 312 319 321 320 322 325 334 330 329 325 325 325 326 326 328 331 334 336 338 342 344 344 342 342 344 350 345 348 350 349 349 346 356 345 344 344 342 342 343 343 346
315 315 316 318 315 316 317 320 324 329 331 328 327 326 326 325 325 326 328 329 333 335 337 340 341 342 340 342 346 343 344 347 350 352 355 353 353 349 344 344 342 343 342 343 346
314 315 316 313 320 318 317 322 329 332 329 328 329 328 327 327 326 327 328 330 333 335 337 338 341 341 342 344 346 346 348 353 355 363 358 348 348 348 343 343 342 345 343 344 344
312 316 314 313 317 317 319 326 333 331 330 329 329 328 327 327 326 327 328 330 331 334 336 339 342 342 341 343 344 349 350 356 361 358 350 348 349 346 344 343 342 341 342 344 344
312 320 322 323 320 319 321 328 330 331 330 328 328 328 327 327 326 326 328 329 330 333 335 338 341 341 341 342 346 350 348 349 354 349 352 352 349 343 343 343 344 341 342 342 342
314 321 324 320 320 317 322 325 329 330 328 328 328 328 328 328 327 326 327 329 329 332 334 337 340 340 341 342 342 348 344 346 346 356 360 352 347 345 346 344 343 344 341 341 340
317 322 323 320 317 318 322 324 326 327 327 327 327 328 330 329 328 327 326 328 330 330 332 336 338 342 342 343 342 347 349 348 351 349 359 355 347 346 346 344 345 341 340 342 341
319 322 322 319 321 321 322 322 323 325 326 327 326 327 329 330 330 328 327 328 329 330 331 334 337 343 343 343 341 342 342 343 348 353 349 353 349 341 342 341 342 338 341 340 340
318 318 319 318 322 325 325 324 323 323 324 326 327 326 326 327 329 330 328 329 329 329 330 333 336 339 343 344 342 342 343 343 345 348 348 355 347 340 342 343 341 340 342 341 341
319 320 321 323 322 323 322 323 325 324 322 322 324 326 326 326 327 329 330 329 329 329 328 330 333 336 342 346 344 343 343 344 347 354 347 350 343 343 343 343 343 342 341 342 341
320 321 320 323 321 320 323 326 326 324 325 324 322 323 325 326 326 328 329 330 329 329 329 329 331 334 338 341 345 345 344 341 348 347 350 346 341 342 345 344 343 342 342 342 344
316 315 315 316 315 316 316 319 320 321 324 325 325 323 324 325 326 327 328 329 330 330 329 329 330 332 334 337 344 343 344 343 344 345 347 347 345 341 341 344 343 342 342 343 343
314 313 313 314 315 316 316 317 318 320 320 322 324 326 325 324 324 324 326 328 329 329 330 329 329 332 335 336 344 346 344 344 343 344 343 345 344 343 343 345 342 341 341 344 344
Wind_Speed
12 13 14 14 14 14 13 13 12 11 12 11 10 9 10 9 8 8 4 4 3 4 5 8 12 11 11 16 7 8 4 5 8 17 10 15 12 13 12 15 28 20 24 20 15
12 12 14 14 14 14 14 13 12 11 12 10 10 8 9 8 9 13 13 8 7 7 11 13 14 14 19 17 7 5 2 17 14 16 12 11 18 15 17 17 20 22 20 16 15
12 12 12 14 15 15 15 14 13 11 11 10 9 8 8 6 7 11 18 10 8 9 14 11 18 20 19 12 5 15 10 18 16 17 17 12 21 17 13 15 17 19 18 14 14
13 13 14 14 15 16 15 15 14 12 11 11 8 7 7 4 7 6 13 11 9 9 12 17 11 3 5 11 11 13 17 19 16 13 16 12 26 16 16 17 19 16 16 15 14
15 14 14 15 15 16 16 15 14 12 10 10 7 7 5 8 17 5 12 12 13 12 16 15 23 2 7 2 2 13 15 15 17 16 13 14 24 20 20 19 18 16 16 15 16
16 16 16 16 15 15 16 16 13 12 10 9 6 6 5 13 7 9 10 14 13 13 15 12 27 18 11 20 15 15 18 13 18 14 13 17 16 21 22 16 18 16 21 17 18
16 16 17 18 17 15 15 15 13 10 8 8 6 6 9 16 6 7 10 14 15 13 19 8 7 18 21 11 13 17 13 10 11 11 15 17 17 15 22 21 17 14 9 20 14
17 17 18 18 18 17 15 13 11 7 5 6 6 5 9 17 9 13 11 14 15 14 13 7 7 18 8 21 11 24 9 5 11 9 14 7 16 13 19 21 21 22 16 18 14
17 18 18 19 18 17 14 10 7 4 2 6 5 5 15 12 15 14 17 16 16 14 12 11 10 14 27 8 12 10 6 15 11 16 13 12 14 14 19 19 21 21 19 17 18
18 18 18 19 18 16 11 8 6 3 1 6 7 8 15 17 16 20 20 17 16 14 14 14 15 13 11 12 4 2 17 12 11 11 16 15 14 13 19 20 23 21 23 17 20
19 19 18 18 16 12 5 5 4 4 13 14 6 16 12 18 17 22 21 19 17 18 15 20 14 1 19 24 21 27 21 24 15 11 11 15 14 14 16 13 22 18 16 28 19
20 19 18 16 12 4 5 6 5 6 10 21 20 21 6 10 13 21 22 21 20 17 17 18 16 9 21 31 29 27 22 27 16 13 9 16 16 13 15 19 16 26 19 19 19
20 20 17 12 5 5 5 4 5 9 8 16 27 22 17 12 18 23 25 26 16 19 20 19 1 7 13 24 27 28 29 15 16 10 10 13 16 16 14 22 24 22 26 19 18
21 20 16 9 3 5 3 3 7 6 6 12 21 23 24 18 20 23 29 28 22 21 21 19 11 15 14 13 12 4 16 7 15 10 5 9 8 14 13 12 14 23 21 24 24
20 19 12 11 5 3 5 6 8 3 5 15 16 10 19 28 6 25 30 31 23 21 20 20 15 15 13 4 8 8 29 18 16 14 9 3 4 14 15 13 10 7 20 25 32
18 18 11 5 5 6 10 8 5 5 8 8 10 13 19 20 26 23 29 29 30 24 22 22 9 18 14 7 14 8 14 20 7 6 7 10 5 12 16 17 16 25 22 22 34
16 16 9 5 3 8 7 5 6 9 9 11 17 16 19 20 22 20 22 25 22 20 21 20 16 7 4 8 13 8 13 7 11 4 6 10 2 9 22 21 17 20 24 37 27
16 11 4 4 8 7 4 7 7 9 17 9 1 15 20 19 22 20 24 20 27 26 16 18 12 17 11 18 9 9 12 6 6 5 3 16 8 9 18 28 27 22 21 28 28
13 7 4 6 3 4 7 9 7 11 15 4 8 10 16 20 17 21 23 23 23 26 24 19 22 18 14 16 11 5 5 14 9 15 6 12 18 21 21 18 27 25 23 21 25
16 3 5 4 3 4 7 12 13 12 7 9 12 10 13 19 22 23 23 23 24 28 26 25 14 18 16 16 15 21 15 8 6 8 1 11 18 17 20 20 20 23 23 21 29
8 6 3 1 3 8 8 12 14 13 2 7 13 18 16 14 20 21 25 21 24 25 28 26 13 15 12 14 15 12 8 8 5 6 6 4 14 20 21 20 21 22 26 28 28
5 4 2 1 8 10 11 16 18 15 11 5 13 15 17 15 14 21 22 22 26 24 29 28 20 18 23 20 18 18 16 19 10 7 7 1 7 22 23 22 26 26 30 28 27
9 13 6 4 6 8 13 15 13 15 12 11 11 13 15 15 17 18 21 23 23 21 25 23 21 10 11 24 18 15 14 15 4 7 0 4 11 19 21 20 26 27 32 31 28
7 4 9 9 12 12 14 13 16 14 13 14 18 16 17 12 14 17 16 18 14 11 8 11 20 22 15 23 15 21 19 6 13 5 7 8 17 22 21 21 24 30 33 30 27
5 3 6 6 12 16 16 16 16 16 16 15 11 17 18 16 14 18 18 21 10 10 11 10 19 24 19 21 27 11 14 13 14 21 3 9 25 22 21 20 26 34 32 28 26
8 7 13 18 20 16 14 15 17 18 19 18 16 15 16 19 17 17 18 20 16 14 16 17 17 20 24 23 13 9 20 27 16 22 6 25 7 22 27 25 31 29 30 28 26
10 9 9 9 13 12 13 16 18 17 19 22 20 20 16 18 21 29 29 21 19 15 17 20 16 19 19 15 18 7 26 21 22 26 25 10 7 3 20 21 28 32 31 29 26
Wind_Direction
325 324 323 322 321 320 319 317 316 309 310 313 313 304 288 280 263 261 282 174 210 201 192 181 210 223 227 244 266 64 113 64 80 105 133 103 102 114 139 93 63 112 103 121 126
331 327 324 322 322 320 319 316 314 308 303 306 309 305 289 288 259 256 247 246 211 186 180 195 204 215 231 230 150 115 273 153 105 127 118 113 106 109 93 92 90 92 108 127 136
336 330 325 322 322 321 319 317 313 309 300 300 302 299 291 295 272 244 220 224 209 201 202 229 33 340 304 281 349 178 100 111 107 115 111 133 113 96 118 119 119 124 129 142 140
339 334 330 325 323 321 320 319 315 309 300 294 294 288 283 241 232 199 188 203 208 193 224 256 87 259 300 263 127 106 121 94 106 134 144 132 125 123 113 114 125 129 136 140 135
339 336 330 324 322 320 319 318 315 310 298 287 283 281 269 244 256 242 200 194 206 202 236 255 150 134 237 17 42 115 109 127 135 100 123 127 122 137 114 118 123 134 125 122 108
339 334 329 324 321 317 315 315 315 308 294 278 265 268 264 245 190 221 215 197 211 207 248 254 147 208 210 84 278 122 129 135 116 141 135 122 126 114 118 130 126 135 138 135 125
335 331 327 324 320 317 314 314 316 309 290 265 247 246 250 228 194 197 205 205 199 220 249 259 301 353 2 173 176 114 132 153 127 150 136 146 141 131 141 134 144 103 85 122 132
331 328 325 322 318 316 314 314 316 316 281 246 224 220 252 233 217 213 210 214 219 233 266 299 272 162 130 270 67 31 22 170 139 151 134 203 135 144 152 145 146 142 185 119 140
327 324 323 320 319 317 315 312 310 318 252 209 191 215 242 211 216 211 209 213 218 235 247 269 271 245 171 169 34 45 250 263 161 150 180 178 144 166 165 157 159 152 143 167 158
326 322 320 321 325 322 319 309 283 253 233 193 220 244 252 219 222 210 209 218 220 232 233 242 250 236 49 41 111 275 223 265 172 164 202 149 148 176 180 163 174 170 164 173 164
329 324 323 324 330 330 340 313 304 223 213 213 193 219 310 208 201 201 202 213 215 225 232 226 239 75 148 139 215 208 225 254 149 178 171 127 147 179 173 191 128 160 195 147 194
330 327 328 327 334 355 357 329 28 332 294 244 250 225 210 176 187 196 198 212 214 224 225 250 228 176 150 170 191 185 219 244 137 193 92 154 155 173 181 178 179 156 189 172 160
329 330 332 330 355 23 320 310 325 332 261 257 220 223 199 212 221 207 202 210 216 229 233 244 167 183 167 190 192 192 209 176 147 164 165 181 147 168 192 178 189 175 187 146 163
329 329 334 334 356 308 297 299 325 322 275 216 193 215 214 213 225 222 206 209 228 227 236 243 241 224 216 234 229 48 321 265 166 136 211 202 154 175 182 182 183 170 173 140 184
328 325 336 326 286 360 325 318 314 282 271 131 171 211 201 206 204 219 201 213 224 227 235 245 188 244 245 250 49 162 233 258 189 157 140 275 25 177 175 192 184 137 131 187 165
328 321 329 330 310 306 311 307 294 232 245 151 140 181 196 200 232 195 201 210 227 246 244 257 212 221 226 207 134 183 228 243 196 81 67 283 219 186 175 178 190 165 187 159 149
329 319 311 239 129 308 313 280 224 244 125 156 171 186 206 196 221 219 202 197 218 228 243 243 229 223 147 239 155 194 215 251 191 67 192 228 285 223 173 170 177 166 152 144 162
333 333 329 293 252 302 294 238 255 227 246 88 288 180 204 201 211 220 195 208 211 231 230 230 205 229 160 248 190 67 121 121 318 279 165 166 230 222 200 167 152 156 163 159 154
346 344 1 353 289 236 246 225 239 290 354 20 192 255 194 213 203 224 213 206 212 223 234 221 218 202 192 228 199 28 3 147 123 250 271 177 234 139 154 154 151 159 149 164 154
358 323 209 289 218 200 239 259 305 345 0 337 293 205 240 205 211 205 226 210 216 214 237 254 231 221 187 211 242 147 173 114 195 243 142 180 153 144 161 154 166 149 154 164 140
348 272 163 39 165 225 242 246 267 286 213 278 273 289 298 241 213 213 221 224 208 219 225 246 258 296 214 218 211 147 175 186 142 251 162 284 154 144 161 160 154 145 155 141 142
322 282 186 211 244 234 249 256 272 293 294 256 276 283 292 301 283 224 221 228 211 218 218 231 242 199 261 218 215 246 220 208 220 130 183 103 198 154 164 160 146 157 153 140 144
311 288 233 218 255 245 268 260 261 283 282 268 268 265 277 286 290 288 228 234 235 213 229 217 233 241 298 303 195 231 246 253 62 98 129 37 133 152 162 158 153 160 134 139 143
300 300 199 212 263 285 288 292 295 279 239 282 284 283 271 264 274 279 280 230 239 245 17 252 237 232 204 239 248 208 225 225 101 27 267 182 186 157 160 160 164 138 137 139 143
264 360 19 297 313 347 321 321 309 297 295 263 257 263 271 263 251 260 261 273 177 247 270 253 243 245 207 219 237 299 283 209 133 192 173 238 157 163 159 166 140 136 139 142 141
337 354 332 302 296 289 277 271 275 281 284 277 273 257 262 259 267 253 247 256 263 206 237 244 251 255 251 239 39 326 291 294 188 150 142 263 312 153 160 154 138 144 144 152 155
352 318 298 290 294 290 282 290 291 298 283 281 289 295 264 265 261 266 275 283 257 252 229 236 236 240 248 226 132 292 261 274 257 142 154 193 213 256 165 148 148 154 157 157 171